Location: Keroullaire
(48.2333°N, 3.4685°W)
Time: 08:46:45
(UTC+00:00)

Daily predictions for brighter satellites

Satellite Brightness Start Highest point End
(mag) Time Altitude Azimuth Time Altitude Azimuth Time Altitude Azimuth
Meteor 2-14 Rocket 4.5 17:21:04 10° N 17:27:14 77° E 17:33:20 10° SSE
Radarsat Rocket 4.2 17:22:47 10° SSE 17:28:46 79° WSW 17:34:38 10° NNW
Cosmos 2228 3.0 17:24:43 10° S 17:28:54 60° E 17:33:08 10° NNE
Okean O Rocket 1.5 17:24:34 10° SSE 17:28:54 76° ENE 17:33:16 10° N
Cosmos 1726 Rocket 3.8 17:25:37 10° SSE 17:29:46 46° E 17:33:59 10° NNE
CZ-4 R/B 2.9 17:28:26 10° E 17:30:46 16° ENE 17:33:05 10° NNE
SL-4 R/B 2.1 17:29:17 10° WNW 17:32:41 47° N 17:36:17 10° E
Cosmos 1758 Rocket 3.9 17:29:15 10° NNW 17:33:39 72° W 17:37:59 10° S
Cosmos 1346 Rocket 4.1 17:30:44 10° NNE 17:33:42 20° ENE 17:36:39 10° ESE
Cosmos 2058 4.2 17:31:34 10° NNE 17:34:32 19° ENE 17:37:30 10° ESE
Aureole 3 3.8 17:33:01 10° SSE 17:35:32 23° E 17:37:59 10° NE
Cosmos 2369 Rocket 4.3 17:31:28 10° W 17:35:52 22° NW 17:40:18 10° N
CORIOLIS 4.1 17:30:50 10° SSE 17:36:10 78° ENE 17:41:33 10° NNW
Cosmos 2297 Rocket 2.2 17:31:40 10° NNW 17:37:19 62° ENE 17:42:55 10° SE
Cosmos 1980 Rocket 4.0 17:36:38 10° ESE 17:37:25 10° E 17:38:10 10° E
Timation 2 Rocket 4.3 17:32:18 10° NNW 17:38:57 87° WSW 17:45:47 10° SSE
In-Cosmos 22 Rocket 4.4 17:34:16 10° N 17:39:24 44° ENE 17:44:36 10° SE
CZ-2C R/B 4.1 17:39:47 10° ESE 17:44:32 28° ENE 17:49:10 10° N
Cosmos 1606 Rocket 3.5 17:41:48 10° S 17:46:11 85° E 17:50:38 10° N
Cosmos 1315 Rocket 4.4 17:43:47 10° SE 17:46:13 16° E 17:48:42 10° NE
YAOGAN 6 3.9 17:46:14 10° S 17:49:46 47° W 17:53:22 10° NNW
Cosmos 1553 Rocket 4.4 17:44:18 10° SSE 17:50:10 42° E 17:55:59 10° NNE
BREEZE-M R/B 3.2 17:49:37 10° W 17:53:00 74° N 17:59:00 12° E
USA 305 3.0 17:49:54 10° WNW 17:54:12 65° NNE 17:58:11 12° ESE
Meteor 2-10 Rocket 4.2 17:51:25 10° SSE 17:55:56 30° E 18:00:22 10° NNE
SKYMED 2 4.1 17:52:07 10° NNE 17:56:11 37° E 18:00:12 10° SSE
Cosmos 1455 3.5 17:55:15 10° SE 17:58:03 20° E 18:00:52 10° NE
Cosmos 292 Rocket 3.9 17:53:25 10° SSW 17:58:13 80° WNW 18:03:05 10° NNE
FengYun 1-2 T 4.3 17:52:59 10° SSE 17:58:39 90° ENE 18:04:19 10° NNW
NOSS 3-4 (A) 4.4 17:53:44 10° NW 17:59:54 36° NNE 18:05:39 14° E
NOSS 3-4 (C) 4.4 17:53:49 10° NW 17:59:59 36° NNE 18:05:43 14° E
USA 306 2.9 17:56:26 10° WNW 18:00:44 69° NNE 18:04:25 13° ESE
SeaSat 1 3.9 18:00:38 14° ENE 18:03:02 20° NE 18:06:31 10° N
H-2A R/B 3.0 18:00:26 10° ESE 18:05:00 28° ENE 18:09:34 10° N
FALCON 9 DEB 3.1 18:02:32 10° WSW 18:05:46 71° NNW 18:07:57 19° ENE
Okean-O 3.0 18:02:02 10° SE 18:06:10 40° ENE 18:10:20 10° N
FALCON 9 DEB 3.1 18:04:31 10° WSW 18:07:42 67° NNW 18:09:47 20° ENE
SMAP 4.3 18:03:23 10° S 18:07:52 46° W 18:12:22 10° NNW
SL-08 R/B 4.4 18:02:33 10° N 18:08:43 66° ENE 18:14:46 10° SSE
NOSS 3-3 (A) 4.4 18:05:26 10° S 18:10:47 40° ESE 18:16:10 12° NE
NOSS 3-3 (C) 4.4 18:05:34 10° S 18:10:54 39° ESE 18:16:14 13° NE
Cosmos 2219 3.5 18:05:09 10° NNW 18:10:56 75° WSW 18:16:40 10° SSE
Aureole 3 Rocket 3.3 18:07:18 10° S 18:11:29 75° E 18:17:24 10° NNE
ATLAS 5 CENTAUR R/B 4.0 18:10:37 10° NW 18:13:26 15° N 18:16:28 10° NNE
Cosmos 1745 Rocket 4.1 18:08:59 10° N 18:15:11 55° ENE 18:21:23 10° SSE
USA 215 4.0 18:10:10 15° ENE 18:15:15 42° N 18:21:19 10° WNW
Lacrosse 5 3.0 18:12:38 10° WNW 18:17:07 30° N 18:20:11 17° NE
Cosmos 2082 3.7 18:12:29 10° NNW 18:18:11 61° ENE 18:23:51 10° SE
Cosmos 1408 2.8 18:14:52 10° N 18:18:24 44° ENE 18:21:56 10° SSE
Cosmos 44 Rocket 4.3 18:14:37 10° SSE 18:18:29 25° ESE 18:19:58 22° E
GEOS 3 Rocket 4.3 18:17:20 19° E 18:20:44 39° NE 18:25:44 10° NNW
ARGOS 4.0 18:17:21 15° ESE 18:20:51 29° ENE 18:25:27 10° N
ATLAS 2AS CENTAUR R/B 3.5 18:14:50 10° NW 18:21:56 39° NNE 18:26:17 21° E
FALCON 9 DEB 3.3 18:19:15 10° W 18:22:28 58° NNW 18:24:00 27° NE
ERBS 4.1 18:20:10 10° NW 18:22:41 19° N 18:23:42 17° NNE
Cosmos 1656 3.6 18:17:39 10° SSW 18:23:13 80° ESE 18:28:54 10° NNE
Cosmos 968 Rocket 3.5 18:18:22 10° NNW 18:23:38 89° WSW 18:28:48 10° SSE
Cosmos 2058 Rocket 3.2 18:19:42 10° SSW 18:24:12 79° W 18:28:44 10° N
Cosmos 1689 Rocket 1.8 18:22:07 10° NNE 18:24:59 66° ESE 18:27:51 10° S
FALCON 9 DEB 3.5 18:28:52 10° W 18:32:00 50° NNW 18:33:08 32° NE
FALCON 9 DEB 3.3 18:28:40 10° WNW 18:32:03 54° NNE 18:32:59 39° ENE
Cosmos 1076 Rocket 3.6 18:28:37 10° N 18:32:47 51° ENE 18:36:56 10° SSE
Cosmos 2369 3.9 18:29:08 10° S 18:34:35 47° ESE 18:39:11 14° NE
Cosmos 1892 2.9 18:31:11 10° NNW 18:35:05 76° W 18:38:57 10° S
IRS-1C Rocket 4.4 18:31:38 10° S 18:36:54 71° WSW 18:42:11 10° NNW
Cosmos 1939 Rocket 3.3 18:33:12 10° S 18:37:07 61° W 18:41:00 10° NNW
Cosmos 2227 Rocket 2.9 18:36:17 10° NW 18:41:50 56° WSW 18:47:20 10° S
CSL-04 Rocket 3.8 18:36:42 10° SE 18:42:04 53° ENE 18:47:25 10° N
SAR-Lupe-4 4.4 18:39:37 10° N 18:43:08 51° WNW 18:46:36 10° SSW
SL-08 ROCKET BODY 4.5 18:37:29 10° N 18:43:39 85° W 18:49:49 10° S
Cosmos 2263 Rocket 2.9 18:38:49 10° NNW 18:43:55 33° NE 18:45:08 30° ENE
COSMO-SKYMED 1 2.7 18:39:59 10° N 18:44:20 74° WNW 18:48:39 10° SSW
USA 307 3.0 18:40:13 10° WNW 18:44:30 72° SSW 18:46:28 30° SE
Cosmos 1709 Rocket 4.1 18:38:26 10° N 18:44:41 53° ENE 18:50:53 10° SSE
CZ-4B R/B 3.6 18:43:12 10° N 18:45:53 25° WNW 18:48:30 10° SW
CZ-4C R/B 3.6 18:40:42 10° NW 18:46:43 33° NNE 18:49:38 26° ENE
Cosmos 1400 Rocket 4.2 18:44:41 10° SW 18:48:34 40° WNW 18:52:26 10° N
USA 308 3.1 18:45:12 10° WNW 18:49:28 67° SW 18:51:16 33° SE
Cosmos 1825 2.0 18:46:50 10° N 18:50:37 70° E 18:52:23 29° SSE
ERS-2 4.4 18:47:58 10° N 18:51:00 25° WNW 18:54:01 10° WSW
Helios 1A Rocket 3.5 18:50:40 10° S 18:54:44 59° WSW 18:58:48 10° NNW
Cosmos 1697 Rocket 2.6 18:51:03 10° SSW 18:56:38 79° ESE 19:01:26 15° NNE
YAOGAN 1 2.6 18:53:39 10° SSE 18:57:58 81° WSW 19:02:20 10° NNW
Cosmos 883 Rocket 4.4 18:53:57 10° S 18:59:59 62° E 19:06:01 10° NNE
CZ-2D R/B 4.5 18:58:19 10° S 19:01:57 42° W 19:05:35 10° NNW
Cosmos 1503 Rocket 4.2 18:58:36 10° NNW 19:03:48 69° WSW 19:09:02 10° S
Cosmos 1812 Rocket 3.4 19:00:25 10° S 19:04:48 83° E 19:09:12 10° N
CZ-4 R/B 2.0 19:01:37 10° S 19:05:25 53° W 19:09:13 10° NNW
S3M 4.0 19:00:48 10° SSW 19:06:55 78° W 19:13:09 10° N
Cosmos 1346 Rocket 4.2 19:06:29 10° NNW 19:10:15 40° W 19:13:59 10° SSW
DMSP B5D1-3 4.4 19:05:07 10° NNE 19:10:17 74° ESE 19:15:26 10° S
Meteor 2-1 Rocket 4.3 19:05:09 10° SSW 19:10:39 76° WNW 19:16:14 10° N
Cosmos 2315 Rocket 3.9 19:04:43 10° S 19:10:48 61° E 19:16:54 10° NNE
Cosmos 2058 4.1 19:07:47 10° NNW 19:11:40 43° W 19:15:33 10° SSW
SL-4 R/B 1.8 19:08:50 10° WNW 19:12:08 73° W 19:12:08 73° W
Cosmos 2151 3.4 19:10:59 10° N 19:14:07 46° NNE 19:14:07 46° NNE
Cosmos 1354 Rocket 4.4 19:11:27 10° NNW 19:16:39 62° WSW 19:21:30 12° S
SJ-11-01 4.3 19:14:32 19° S 19:17:51 79° WSW 19:22:34 10° NNW
Cosmos 1980 Rocket 2.0 19:14:43 10° SSW 19:20:18 67° ESE 19:21:13 57° ENE
Cosmos 1992 Rocket 4.4 19:15:23 10° SW 19:20:32 61° WNW 19:25:34 11° NNE
Cosmos 2297 Rocket 4.5 19:16:28 10° NW 19:20:54 24° WSW 19:25:18 10° SSW
Cosmos 1315 Rocket 3.7 19:18:32 10° SSW 19:22:22 47° WNW 19:26:18 10° N
CZ-2C R/B 3.9 19:18:25 10° S 19:24:05 56° W 19:29:36 10° NNW
CSL-04 Debris 4.4 19:19:45 10° S 19:25:10 69° WSW 19:30:39 10° NNW
Ariane Rocket 3.9 19:33:54 36° NNE 19:33:54 36° NNE 19:37:06 10° N
Geosat 3.8 19:33:07 85° ESE 19:33:10 85° ESE 19:38:12 10° SSW
Cosmos 1455 3.8 19:29:58 10° SW 19:33:26 33° WNW 19:36:57 10° N
USA 305 4.2 19:30:10 10° WNW 19:34:03 33° SW 19:34:21 33° SSW
Cosmos 2227 4.1 19:33:15 10° NNW 19:38:36 73° NNE 19:38:36 73° NNE
SeaSat 1 2.5 19:40:26 74° NNW 19:40:26 74° NNW 19:44:57 10° NNW
USA 306 4.4 19:36:45 10° WNW 19:40:30 30° SW 19:40:35 30° SW
H-2A R/B 2.9 19:38:51 10° S 19:44:08 51° W 19:49:28 10° NNW
MOS 1 Rocket 4.0 19:42:25 10° N 19:47:01 54° WNW 19:51:52 10° SSW
NOSS 3-4 (A) 3.8 19:44:30 10° NW 19:51:30 81° SW 19:53:07 58° SSE
NOSS 3-4 (C) 3.8 19:44:37 10° NW 19:51:35 81° SW 19:53:11 59° SSE
Cosmos 2278 3.9 19:48:23 10° SW 19:54:02 69° WNW 19:54:44 62° NNW
USA 215 3.3 19:57:31 61° NNE 19:57:41 61° NNE 20:04:06 10° NW
GEOS 3 Rocket 4.1 19:58:28 57° SW 19:58:36 57° SW 20:03:56 10° NW
Cosmos 44 Rocket 4.2 19:54:57 10° SW 19:58:44 47° W 19:58:44 47° W
ATLAS 5 CENTAUR R/B 4.1 19:56:38 10° NNW 19:59:05 17° N 19:59:05 17° N
ARGOS 3.9 19:58:53 34° SSW 20:00:51 49° W 20:06:09 10° NNW
Lacrosse 5 3.0 19:56:00 10° NW 19:59:23 38° NNW 19:59:23 38° NNW
Meteor 2-3 Rocket 3.9 19:56:46 10° NNW 20:01:56 69° NW 20:01:56 69° NW
ATLAS 2AS CENTAUR R/B 2.8 20:06:05 10° NW 20:13:35 76° SW 20:13:44 75° SW
SJ 16-02 4.1 20:10:20 10° NNW 20:10:43 12° NNW 20:10:43 12° NNW
Cosmos 1844 Rocket 4.5 20:11:03 10° NNW 20:13:19 22° N 20:13:19 22° N
Cosmos 2263 Rocket 3.2 20:22:35 10° NW 20:26:51 43° WNW 20:26:51 43° WNW
CZ-4C R/B 3.1 20:29:04 10° NW 20:34:50 64° NNW 20:34:50 64° NNW
Cosmos 1980 Rocket 4.3 21:00:07 10° WSW 21:03:04 22° WNW 21:03:04 22° WNW
